Showing default

KINEIS-1C, 60081

Orbit data source: Space-Track

KINEIS-1C, 60081 is a French payload satellite in SSO that was launched on Thu, 20 Jun 2024 UTC via an ELECTRON launch vehicle from the Rocket Lab Launch Complex (RLLC). Payloads include a variety of satellites, spacecraft, and rockets equipped with specific instruments for various scientific and technological missions. These include communications satellites like Starlink; space stations such as the ISS; scientific satellites like the Hubble; Earth observation satellites from companies like Planet Labs, Umbra, and HawkEye 360; GPS; miniature CubeSats for education and research; and military/defense satellites.

Loading next visibility...
KINEIS-1C details
Identifier
60081, 2024-114C
Orbit
SSO
Last TLE update6 hours ago
Origin
Flag of FRKINEIS (FR)
ManufacturerKINEIS
MissionOperational Commercial Communications
Bus & MotorCUBESAT 16U, Unknown motor
Mass28 kg wet, 28 kg dry
Launch date (UTC)
2024-06-20 (6 months ago)
Launch vehicle
ELECTRON
Launch site
Rocket Lab Launch Complex (RLLC)
Object type
Payload
Rocket body
Debris
Shape & HBRBox + 2 Pan + 1 Ant, 1.6 m
Radar Cross Section0.229 m², Medium (>0.1 m² and < 1m²)

Expand to show TLE details & history

TLE from 6 hours ago
0 KINEIS-1C
1 60081U 24114C   24348.44288732  .00001878  00000-0  26557-3 0  9998
2 60081  98.0212   3.4758 0002020 121.0005 239.1404 14.78317403 25939
Epoch: 2024-12-13T10:37Z
Definitive object data (Epoch: 2024-12-13T10:37:45.464Z)
Latitude-0.00005°
Longitude121.42758°
Altitude638.383 km
Speed7.539 km/s
True Right ascension00h 13m 54s
True Declination0° 00' 00"
Sunlit
Object was in daylight at TLE epoch
Visualization TLE readout
Latitude-32.45527°
Longitude-63.44429°
Altitude646.938 km
Speed7.533 km/s
Apparent Right ascension08h 17m 09s
Apparent Declination-60° 57' 55"
Sunlit
Object is in daylight
Visualization observer readout
Local Sidereal Time14:58:34
Azimuth217.84° SW
Elevation-38.898°
Doppler factor1
Orbital elements
Apogee altitude633.105 km
Perigee altitude630.273 km
Semi-major axis7,009.826 km
Eccentricity0.000202
Inclination98.0212°
RAAN3.4758°
Arg. of periapsis121.0005°
True anomaly239.12053°
Mean anomaly239.1404°
Eccentric anomaly239.13047°
Mean motion3.69813 °/min
BSTAR0.00026557
Orbital period97.35 mins
Loading maneuver chart data...
Loading historical data...
Loading historical data...
Loading historical data...
Loading historical data...
Loading historical data...
Loading historical data...
Loading historical data...

KINEIS-1C Visibility forecast

Observer location: undefined°, undefined

Span
Click to sort rows by Start time (UTC) header in descending order
Start Az.
Max El. time (UTC)
Max El. Az.
Max El.
End time (UTC)
End Az.
7 mins2024-12-14 01:22:39.624Z175.655° S2024-12-14 01:25:39.624Z244.976° WSW43.508°2024-12-14 01:29:39.624Z342.294° N
5 mins2024-12-14 13:13:39.624Z62.193° ENE2024-12-14 13:15:39.624Z99.089° ESE20.265°2024-12-14 13:18:39.624Z144.106° SSE
6 mins2024-12-14 14:49:39.624Z337.058° NNW2024-12-14 14:51:39.624Z295.204° NW27.604°2024-12-14 14:55:39.624Z227.973° WSW
|